Home   Weather   Kenema   Past weeks

Flag for Sierra Leone Past Weather in Kenema, Sierra Leone — Yesterday and Last 2 Weeks

Now
77 °F

Partly sunny.


Feels Like: 78 °F
Forecast: 73 / 84 °F
Wind: No wind

Location: Roberts Field

Current Time: Sep 27, 2016 at 8:55:01 AM

Latest Report: Sep 27, 2016 at 8:00 AM


Visibility: N/A

Pressure: 29.92 "Hg

Humidity: 94%

Dew Point: 75 °F

Location of KenemaLocation

Past Weather in Kenema — Graph

°F

Kenema Temperature Yesterday

Maximum temperature yesterday: 82 °F (at 3:30 PM)
Minimum temperature yesterday: 75 °F (at 11:30 PM)
Average temperature yesterday: 78 °F

High & Low Weather Summary for the Past Weeks

 TemperatureHumidityPressure
High88 °F (Sep 17, 2:00 PM)100% (Sep 12, 1:00 PM)30.01 "Hg (Sep 12, 1:00 PM)
Low73 °F (Sep 14, 5:00 AM)66% (Sep 17, 2:00 PM)29.80 "Hg (Sep 25, 3:30 PM)
Average79 °F89%29.91 "Hg
* Reported Sep 12 7:00 AM — Sep 27 7:30 AM, Kenema, Weather by CustomWeather, © 2016

Note: Actual official high and low records may vary slightly from our data, if they occured in-between our weather recording intervals... More about our weather records

Advertising

Kenema Weather History for the Previous 24 Hours

Scroll right to see more
 ConditionsComfort  
Time TempWeatherWind HumidityBarometerVisibility
7:30 AM
Tue, Sep 27
75 °FPartly sunny.No wind94%29.89 "HgN/A
7:00 AM75 °FPassing clouds.No wind94%29.89 "HgN/A
6:30 AM75 °FPassing clouds.No wind94%29.89 "HgN/A
6:00 AM75 °FPassing clouds.No wind94%29.89 "HgN/A
5:30 AM75 °FRain. Passing clouds.No wind94%29.86 "HgN/A
5:00 AM75 °FRain. Overcast.No wind94%29.86 "Hg5 mi
4:30 AM75 °FRain. Overcast.No wind94%29.86 "Hg4 mi
4:00 AM75 °FRain. Overcast.No wind94%29.86 "Hg4 mi
3:00 AM75 °FRain. Overcast.No wind94%29.86 "Hg3 mi
1:30 AM75 °FRain. Partly cloudy.No wind94%29.89 "Hg5 mi
1:00 AM75 °FRain. Partly cloudy.No wind94%29.89 "Hg5 mi
12:30 AM75 °FRain. Partly cloudy.No wind94%29.89 "Hg4 mi
12:00 AM75 °FRain. Partly cloudy.No wind94%29.92 "Hg4 mi
11:30 PM
Mon, Sep 26
75 °FRain. Partly cloudy.No wind94%29.92 "Hg3 mi
11:00 PM77 °FRain. Partly cloudy.No wind94%29.92 "Hg2 mi
10:30 PM77 °FRain. Partly cloudy.No wind94%29.92 "Hg2 mi
9:00 PM77 °FPassing clouds.No wind94%29.89 "HgN/A
8:30 PM77 °FPassing clouds.No wind94%29.86 "HgN/A
8:00 PM77 °FPassing clouds.No wind94%29.86 "HgN/A
7:30 PM79 °FLight rain. Partly sunny.No wind89%29.83 "Hg5 mi
7:00 PM79 °FPartly sunny.No wind94%29.83 "HgN/A
6:30 PM79 °FPartly sunny.No wind89%29.83 "HgN/A
6:00 PM81 °FPartly sunny.6 mph89%29.80 "HgN/A
5:30 PM82 °FPartly sunny.7 mph84%29.80 "HgN/A
5:00 PM81 °FPartly sunny.No wind94%29.80 "HgN/A
4:30 PM82 °FLight rain. Partly sunny.9 mph84%29.80 "Hg5 mi
4:00 PM82 °FPartly sunny.10 mph84%29.80 "HgN/A
3:30 PM82 °FThunderstorms. Partly sunny.7 mph89%29.83 "HgN/A
3:00 PM81 °FThunderstorms. Partly sunny.9 mph94%29.83 "Hg6 mi
2:30 PM79 °FThunderstorms. Broken clouds.6 mph94%29.83 "Hg4 mi
2:00 PM77 °FThunderstorms. Broken clouds.No wind94%29.86 "Hg3 mi
1:30 PM77 °FThunderstorms. Partly sunny.No wind94%29.86 "Hg4 mi
1:00 PM77 °FThunderstorms. Partly sunny.No wind94%29.86 "Hg6 mi
12:30 PM77 °FThunderstorms. Partly sunny.No wind94%29.89 "Hg5 mi
12:00 PM77 °FThunderstorms. Broken clouds.5 mph94%29.89 "Hg3 mi
11:30 AM77 °FThunderstorms. Broken clouds.No wind94%29.92 "Hg4 mi
11:00 AM77 °FThunderstorms. Broken clouds.No wind94%29.92 "Hg4 mi
10:30 AM77 °FRain. Partly sunny.No wind94%29.92 "Hg4 mi
10:00 AM77 °FThunderstorms. Partly sunny.No wind94%29.92 "Hg5 mi
9:30 AM77 °FThunderstorms. Broken clouds.No wind94%29.89 "Hg4 mi
9:00 AM77 °FRain. Broken clouds.No wind94%29.89 "Hg4 mi
8:30 AM77 °FThunderstorms. Broken clouds.No wind94%29.89 "Hg4 mi
8:00 AM77 °FThunderstorms. Broken clouds.No wind94%29.86 "Hg4 mi
Weather by CustomWeather, © 2016

See weather overviewHow to use our weather pages